| time (UTC) | temp C | wind direction | speed KPH | gust KPH | rain 1hr cm | rain 24hr cm | rain mn cm | humidity % | barometer mb |
| 20260503221509 | 11 | 107 | 0.0 | 4.8 | 0.18 | 0.38 | 0.00 | 95 | 1007.2 |
| 20260503215513 | 11 | 90 | 4.8 | 8.0 | 0.20 | 0.38 | 0.38 | 94 | 1007.4 |
| 20260503214513 | 12 | 90 | 3.2 | 8.0 | 0.18 | 0.36 | 0.36 | 94 | 1007.5 |
| 20260503213513 | 11 | 29 | 0.0 | 3.2 | 0.18 | 0.33 | 0.33 | 94 | 1007.9 |
| 20260503212513 | 11 | 24 | 0.0 | 0.0 | 0.13 | 0.23 | 0.23 | 94 | 1007.5 |
| 20260503204513 | 11 | 58 | 4.8 | 9.7 | 0.18 | 0.18 | 0.18 | 92 | 1007.3 |
| 20260503203512 | 12 | 105 | 3.2 | 8.0 | 0.15 | 0.15 | 0.15 | 92 | 1007.6 |
| 20260503202512 | 12 | 101 | 0.0 | 3.2 | 0.13 | 0.13 | 0.13 | 91 | 1008.1 |
| 20260503200512 | 11 | 200 | 0.0 | 9.7 | 0.00 | 0.00 | 0.00 | 90 | 1008.6 |
| 20260503193513 | 12 | 49 | 8.0 | 9.7 | 0.00 | 0.00 | 0.00 | 89 | 1008.1 |
| 20260503191513 | 12 | 31 | 4.8 | 9.7 | 0.00 | 0.00 | 0.00 | 89 | 1008.1 |
| 20260503190512 | 12 | 36 | 4.8 | 12.9 | 0.00 | 0.00 | 0.00 | 89 | 1008.0 |
| 20260503184512 | 12 | 42 | 4.8 | 9.7 | 0.00 | 0.00 | 0.00 | 88 | 1008.1 |
| 20260503182513 | 13 | 46 | 0.0 | 9.7 | 0.00 | 0.00 | 0.00 | 88 | 1008.3 |
| 20260503180512 | 13 | 43 | 4.8 | 9.7 | 0.00 | 0.00 | 0.00 | 86 | 1008.4 |
| 20260503175513 | 13 | 34 | 0.0 | 8.0 | 0.00 | 0.00 | 0.00 | 85 | 1008.4 |
| 20260503174513 | 13 | 28 | 3.2 | 9.7 | 0.00 | 0.00 | 0.00 | 85 | 1008.3 |
| 20260503172514 | 14 | 47 | 4.8 | 9.7 | 0.00 | 0.00 | 0.00 | 84 | 1008.5 |
| 20260503171512 | 14 | 300 | 1.6 | 4.8 | 0.00 | 0.00 | 0.00 | 83 | 1008.6 |
| 20260503150517 | 13 | 342 | 1.6 | 8.0 | 0.00 | 0.00 | 0.00 | 85 | 1010.0 |